Location: Middlebury College Observatory
(44.0123°N, 73.1804°W)
Time: 11:48:31
(UTC-05:00)

ISS - Visible Passes

Search period start: 24 November 2017 00:00
Search period end: 04 December 2017 00:00
Orbit: 401 x 407 km, 51.6° (Epoch: 25 November)

Date Brightness Start Highest point End Pass type
(mag) Time Alt. Az. Time Alt. Az. Time Alt. Az.
26 Nov -1.5 18:34:33 10° SW 18:35:44 20° SSW 18:35:44 20° SSW visible
27 Nov -2.4 17:42:44 10° SSW 17:45:26 24° SE 17:45:46 23° SE visible
28 Nov -1.5 16:51:34 10° SSE 16:53:15 13° SE 16:54:56 10° E visible
28 Nov -2.7 18:26:01 10° WSW 18:28:22 44° WSW 18:28:22 44° WSW visible
29 Nov -3.6 17:33:43 10° SW 17:36:55 53° SE 17:38:14 30° E visible
29 Nov -0.4 19:10:33 10° W 19:10:53 12° W 19:10:53 12° W visible
30 Nov -2.9 18:17:49 10° W 18:20:41 42° NW 18:20:41 42° NW visible
01 Dec -3.7 17:25:13 10° WSW 17:28:30 71° NNW 17:30:24 23° NE visible
01 Dec -0.6 19:02:38 10° WNW 19:03:03 12° WNW 19:03:03 12° WNW visible
02 Dec -2.4 18:09:49 10° W 18:12:43 29° NNW 18:12:43 29° NNW visible
03 Dec -2.9 17:17:02 10° W 17:20:08 39° NNW 17:22:21 17° NE visible
03 Dec -0.7 18:54:38 10° NW 18:55:00 12° NW 18:55:00 12° NW visible
